| time (UTC) | temp C | wind direction | speed KPH | gust KPH | rain 1hr cm | rain 24hr cm | rain mn cm | humidity % | barometer mb |
| 20260507203012 | 15 | 212 | 1.6 | 6.4 | 0.00 | 1.02 | 0.00 | 40 | 1004.8 |
| 20260507201512 | 14 | 186 | 1.6 | 24.1 | 0.00 | 1.02 | 0.00 | 37 | 1004.9 |
| 20260507200012 | 13 | 316 | 0.0 | 9.7 | 0.00 | 1.04 | 0.00 | 38 | 1005.0 |
| 20260507194509 | 13 | 260 | 3.2 | 12.9 | 0.00 | 1.12 | 0.00 | 38 | 1005.0 |
| 20260507193014 | 14 | 122 | 3.2 | 16.1 | 0.00 | 1.19 | 0.00 | 36 | 1005.1 |
| 20260507191520 | 15 | 345 | 1.6 | 8.0 | 0.00 | 1.24 | 0.00 | 34 | 1005.2 |
| 20260507190016 | 16 | 340 | 3.2 | 11.3 | 0.00 | 1.30 | 0.00 | 34 | 1005.2 |
| 20260507184514 | 14 | 15 | 1.6 | 4.8 | 0.00 | 1.32 | 0.00 | 41 | 1005.2 |
| 20260507183015 | 13 | 62 | 1.6 | 8.0 | 0.00 | 1.37 | 0.00 | 34 | 1005.4 |
| 20260507181513 | 15 | 71 | 1.6 | 9.7 | 0.00 | 1.40 | 0.00 | 35 | 1005.5 |
| 20260507180033 | 15 | 262 | 3.2 | 9.7 | 0.00 | 1.45 | 0.00 | 36 | 1005.5 |
| 20260507174520 | 15 | 293 | 1.6 | 11.3 | 0.00 | 1.47 | 0.00 | 37 | 1005.6 |
| 20260507173021 | 15 | 285 | 1.6 | 9.7 | 0.00 | 1.60 | 0.00 | 36 | 1005.5 |
| 20260507171516 | 15 | 281 | 4.8 | 19.3 | 0.00 | 1.80 | 0.00 | 39 | 1005.7 |
| 20260507170031 | 15 | 12 | 11.3 | 24.1 | 0.00 | 1.98 | 0.00 | 36 | 1006.0 |
| 20260507164516 | 15 | 222 | 4.8 | 16.1 | 0.00 | 1.98 | 0.00 | 35 | 1005.8 |
| 20260507163016 | 14 | 140 | 4.8 | 17.7 | 0.00 | 1.98 | 0.00 | 43 | 1006.4 |
| 20260507161515 | 13 | 307 | 1.6 | 8.0 | 0.00 | 1.98 | 0.00 | 51 | 1006.5 |
| 20260507160018 | 12 | 333 | 1.6 | 8.0 | 0.00 | 1.98 | 0.00 | 57 | 1006.9 |
| 20260507154518 | 13 | 273 | 4.8 | 8.0 | 0.00 | 1.98 | 0.00 | 59 | 1006.9 |
| 20260507153020 | 13 | 144 | 4.8 | 12.9 | 0.00 | 1.98 | 0.00 | 57 | 1006.8 |
| 20260507151520 | 13 | 261 | 6.4 | 12.9 | 0.00 | 1.98 | 0.00 | 57 | 1007.0 |
| 20260507150018 | 12 | 243 | 3.2 | 12.9 | 0.00 | 1.98 | 0.00 | 66 | 1007.2 |
| 20260507144520 | 11 | 329 | 1.6 | 12.9 | 0.00 | 1.98 | 0.00 | 64 | 1007.1 |
| 20260507143022 | 11 | 240 | 1.6 | 9.7 | 0.00 | 1.98 | 0.00 | 66 | 1007.1 |
| 20260507141509 | 12 | 259 | 3.2 | 11.3 | 0.00 | 1.98 | 0.00 | 71 | 1007.0 |
| 20260507140016 | 12 | 283 | 1.6 | 9.7 | 0.00 | 1.98 | 0.00 | 67 | 1006.9 |
| 20260507134514 | 12 | 56 | 3.2 | 8.0 | 0.00 | 1.98 | 0.00 | 65 | 1006.9 |
| 20260507133005 | 11 | 258 | 1.6 | 11.3 | 0.00 | 1.98 | 0.00 | 73 | 1007.0 |
| 20260507131509 | 11 | 282 | 1.6 | 6.4 | 0.00 | 1.98 | 0.00 | 71 | 1007.1 |
| 20260507130013 | 10 | 154 | 1.6 | 6.4 | 0.00 | 1.98 | 0.00 | 76 | 1007.2 |
| 20260507124519 | 9 | 215 | 1.6 | 3.2 | 0.00 | 1.98 | 0.00 | 81 | 1007.0 |
| 20260507123023 | 8 | 30 | 0.0 | 3.2 | 0.00 | 1.98 | 0.00 | 89 | 1007.0 |
| 20260507121516 | 7 | 165 | 0.0 | 3.2 | 0.00 | 1.98 | 0.00 | 90 | 1007.1 |
| 20260507120008 | 6 | 204 | 0.0 | 3.2 | 0.00 | 1.98 | 0.00 | 94 | 1007.4 |
| 20260507114509 | 6 | 165 | 0.0 | 1.6 | 0.00 | 1.98 | 0.00 | 95 | 1007.3 |
| 20260507113007 | 5 | 197 | 1.6 | 1.6 | 0.00 | 1.98 | 0.00 | 96 | 1007.3 |
| 20260507111524 | 5 | 153 | 0.0 | 1.6 | 0.00 | 1.98 | 0.00 | 95 | 1007.1 |
| 20260507110025 | 5 | 153 | 0.0 | 1.6 | 0.00 | 1.98 | 0.00 | 95 | 1007.3 |
| 20260507104514 | 5 | 154 | 0.0 | 0.0 | 0.00 | 1.98 | 0.00 | 96 | 1007.0 |
| 20260507103020 | 4 | 153 | 0.0 | 1.6 | 0.00 | 1.98 | 0.00 | 96 | 1007.0 |
| 20260507101520 | 4 | 153 | 0.0 | 1.6 | 0.00 | 1.98 | 0.00 | 96 | 1007.2 |
| 20260507100016 | 5 | 153 | 0.0 | 0.0 | 0.00 | 1.98 | 0.00 | 96 | 1007.2 |
| 20260507094531 | 5 | 153 | 0.0 | 1.6 | 0.00 | 1.98 | 0.00 | 96 | 1007.3 |
| 20260507093017 | 5 | 154 | 0.0 | 3.2 | 0.00 | 1.98 | 0.00 | 95 | 1007.2 |
| 20260507091533 | 5 | 155 | 0.0 | 0.0 | 0.00 | 1.98 | 0.00 | 95 | 1007.0 |
| 20260507090029 | 5 | 155 | 0.0 | 0.0 | 0.00 | 1.98 | 0.00 | 95 | 1007.1 |
| 20260507084536 | 6 | 155 | 0.0 | 0.0 | 0.00 | 1.98 | 0.00 | 95 | 1006.6 |
| 20260507083016 | 5 | 155 | 0.0 | 0.0 | 0.00 | 1.98 | 0.00 | 95 | 1006.9 |
| 20260507081518 | 6 | 155 | 0.0 | 0.0 | 0.00 | 1.98 | 0.00 | 95 | 1006.9 |
| 20260507080024 | 6 | 155 | 0.0 | 0.0 | 0.00 | 1.98 | 0.00 | 94 | 1006.6 |
| 20260507074526 | 6 | 155 | 0.0 | 0.0 | 0.00 | 1.98 | 0.00 | 94 | 1006.4 |
| 20260507073024 | 6 | 155 | 0.0 | 0.0 | 0.00 | 1.98 | 0.00 | 94 | 1006.1 |
| 20260507071524 | 6 | 155 | 0.0 | 1.6 | 0.00 | 1.98 | 0.00 | 94 | 1006.0 |
| 20260507070018 | 6 | 155 | 0.0 | 1.6 | 0.00 | 1.98 | 0.00 | 94 | 1006.4 |
| 20260507064524 | 6 | 155 | 0.0 | 3.2 | 0.00 | 1.98 | 0.00 | 93 | 1006.0 |
| 20260507063028 | 6 | 152 | 1.6 | 3.2 | 0.00 | 1.98 | 0.00 | 93 | 1006.0 |
| 20260507061528 | 7 | 99 | 0.0 | 3.2 | 0.00 | 1.98 | 0.00 | 94 | 1005.9 |
| 20260507060025 | 7 | 180 | 0.0 | 4.8 | 0.00 | 1.98 | 0.00 | 94 | 1005.7 |
| 20260507054520 | 7 | 286 | 1.6 | 6.4 | 0.00 | 1.98 | 0.00 | 94 | 1005.7 |
| 20260507053022 | 7 | 227 | 0.0 | 4.8 | 0.00 | 1.98 | 0.00 | 94 | 1005.7 |
| 20260507051528 | 7 | 172 | 0.0 | 4.8 | 0.00 | 1.98 | 0.00 | 94 | 1005.5 |
| 20260507050040 | 7 | 276 | 1.6 | 6.4 | 0.00 | 1.98 | 0.00 | 93 | 1005.4 |
| 20260507044527 | 7 | 221 | 0.0 | 3.2 | 0.00 | 1.98 | 0.00 | 94 | 1005.7 |
| 20260507043022 | 8 | 156 | 0.0 | 3.2 | 0.03 | 1.98 | 0.00 | 94 | 1005.2 |
| 20260507041524 | 8 | 167 | 0.0 | 3.2 | 0.03 | 1.98 | 0.00 | 93 | 1005.5 |
| 20260507040021 | 8 | 239 | 1.6 | 4.8 | 0.03 | 1.98 | 0.00 | 94 | 1005.7 |
| 20260507034526 | 8 | 258 | 1.6 | 3.2 | 0.05 | 1.98 | 1.98 | 94 | 1005.2 |
| 20260507033026 | 9 | 232 | 0.0 | 3.2 | 0.03 | 1.96 | 1.96 | 94 | 1005.1 |
| 20260507031527 | 9 | 229 | 1.6 | 8.0 | 0.03 | 1.96 | 1.96 | 94 | 1005.2 |
| 20260507030026 | 10 | 240 | 1.6 | 8.0 | 0.05 | 1.96 | 1.96 | 93 | 1005.1 |
| 20260507024530 | 10 | 221 | 1.6 | 3.2 | 0.03 | 1.93 | 1.93 | 93 | 1004.9 |
| 20260507023017 | 11 | 201 | 3.2 | 4.8 | 0.03 | 1.93 | 1.93 | 94 | 1004.9 |
| 20260507021529 | 11 | 225 | 1.6 | 3.2 | 0.03 | 1.93 | 1.93 | 93 | 1005.0 |
| 20260507020018 | 12 | 243 | 0.0 | 3.2 | 0.00 | 1.91 | 1.91 | 94 | 1004.7 |
| 20260507014510 | 12 | 245 | 0.0 | 3.2 | 0.03 | 1.91 | 1.91 | 94 | 1004.6 |
| 20260507013011 | 12 | 228 | 0.0 | 3.2 | 0.03 | 1.91 | 1.91 | 94 | 1004.5 |
| 20260507011514 | 12 | 141 | 0.0 | 8.0 | 0.03 | 1.91 | 1.91 | 94 | 1004.4 |
| 20260507010031 | 13 | 214 | 3.2 | 6.4 | 0.03 | 1.91 | 1.91 | 94 | 1004.4 |
| 20260507004524 | 13 | 85 | 1.6 | 1.6 | 0.03 | 1.88 | 1.88 | 95 | 1004.3 |
| 20260507003011 | 13 | 188 | 0.0 | 3.2 | 0.05 | 1.88 | 1.88 | 95 | 1004.0 |
| 20260507001516 | 13 | 212 | 1.6 | 3.2 | 0.05 | 1.88 | 1.88 | 95 | 1003.9 |
| 20260507000022 | 14 | 155 | 1.6 | 3.2 | 0.08 | 1.88 | 1.88 | 95 | 1003.7 |
| 20260506234512 | 14 | 262 | 0.0 | 3.2 | 0.05 | 1.85 | 1.85 | 95 | 1003.7 |
| 20260506233026 | 14 | 231 | 1.6 | 11.3 | 0.05 | 1.83 | 1.83 | 95 | 1003.4 |
| 20260506231518 | 14 | 347 | 1.6 | 9.7 | 0.08 | 1.83 | 1.83 | 95 | 1003.5 |
| 20260506230019 | 15 | 245 | 1.6 | 8.0 | 0.08 | 1.80 | 1.80 | 94 | 1003.4 |
| 20260506224522 | 15 | 262 | 4.8 | 16.1 | 0.15 | 1.80 | 1.80 | 94 | 1003.2 |
| 20260506223020 | 15 | 230 | 3.2 | 12.9 | 0.25 | 1.80 | 1.78 | 94 | 1003.4 |
| 20260506221516 | 15 | 238 | 3.2 | 12.9 | 0.41 | 1.78 | 1.75 | 94 | 1003.6 |
| 20260506220018 | 15 | 137 | 1.6 | 17.7 | 0.56 | 1.83 | 1.73 | 94 | 1003.6 |
| 20260506214522 | 15 | 105 | 1.6 | 6.4 | 0.56 | 1.78 | 1.65 | 94 | 1003.7 |
| 20260506213023 | 15 | 352 | 1.6 | 9.7 | 0.56 | 1.65 | 1.52 | 93 | 1003.9 |
| 20260506211538 | 15 | 281 | 3.2 | 9.7 | 0.38 | 1.47 | 1.32 | 94 | 1003.9 |
| 20260506210033 | 15 | 292 | 3.2 | 14.5 | 0.23 | 1.30 | 1.17 | 93 | 1004.1 |
| 20260506204522 | 15 | 262 | 0.0 | 4.8 | 0.23 | 1.22 | 1.09 | 93 | 1004.3 |